Total_Precipitation_Accumulation
0.03 0.06 0.09 0.10 0.10 0.07 0.09 0.11 0.09 0.05 0.03 0.02 0.02 0.02 0.03 0.13 0.20 0.17 0.26 0.41 0.28 0.14 0.03 0.01 0.04 0.07 0.08 0.14 0.40 0.51 0.36 0.28 0.36 0.31 0.13 0.03 0.00 0.00 0.00 0.00 0.00 0.01 0.02 0.04 0.03 0.03 0.00 0.00 0.00 0.00 0.00 0.00 0.00 0.00
0.05 0.07 0.09 0.10 0.10 0.08 0.09 0.09 0.05 0.04 0.03 0.02 0.01 0.03 0.06 0.09 0.18 0.21 0.17 0.20 0.31 0.19 0.04 0.01 0.03 0.04 0.07 0.15 0.31 0.53 0.38 0.16 0.07 0.14 0.07 0.03 0.02 0.01 0.00 0.01 0.00 0.00 0.00 0.00 0.00 0.00 0.00 0.00 0.00 0.00 0.00 0.00 0.00 0.00
0.07 0.08 0.09 0.09 0.09 0.08 0.08 0.06 0.05 0.05 0.03 0.02 0.03 0.05 0.09 0.09 0.14 0.25 0.15 0.11 0.21 0.19 0.05 0.02 0.02 0.01 0.01 0.10 0.20 0.48 0.41 0.22 0.12 0.06 0.12 0.06 0.04 0.02 0.01 0.00 0.00 0.00 0.00 0.00 0.00 0.00 0.00 0.00 0.00 0.00 0.00 0.00 0.00 0.00
0.06 0.06 0.08 0.08 0.08 0.07 0.06 0.06 0.07 0.04 0.03 0.03 0.05 0.07 0.09 0.09 0.12 0.19 0.12 0.07 0.14 0.08 0.04 0.03 0.01 0.03 0.03 0.15 0.28 0.34 0.39 0.31 0.24 0.12 0.21 0.16 0.09 0.02 0.02 0.01 0.00 0.00 0.00 0.00 0.00 0.00 0.00 0.00 0.00 0.00 0.00 0.00 0.00 0.00
0.05 0.05 0.06 0.07 0.07 0.05 0.07 0.07 0.04 0.03 0.04 0.07 0.08 0.06 0.07 0.09 0.11 0.10 0.06 0.02 0.04 0.12 0.21 0.06 0.03 0.04 0.02 0.14 0.32 0.42 0.48 0.39 0.32 0.26 0.15 0.14 0.13 0.06 0.01 0.00 0.00 0.00 0.00 0.00 0.00 0.00 0.00 0.00 0.00 0.00 0.00 0.00 0.00 0.00
0.03 0.04 0.04 0.05 0.04 0.05 0.04 0.03 0.03 0.04 0.08 0.08 0.06 0.05 0.07 0.10 0.20 0.21 0.13 0.08 0.03 0.11 0.26 0.09 0.03 0.03 0.02 0.20 0.42 0.45 0.43 0.45 0.43 0.30 0.16 0.08 0.09 0.10 0.06 0.01 0.00 0.00 0.00 0.00 0.00 0.00 0.00 0.00 0.00 0.00 0.00 0.00 0.00 0.00
0.03 0.03 0.03 0.03 0.04 0.02 0.01 0.03 0.05 0.08 0.07 0.09 0.09 0.08 0.05 0.12 0.25 0.21 0.09 0.13 0.05 0.16 0.17 0.05 0.04 0.04 0.03 0.19 0.45 0.54 0.31 0.30 0.36 0.31 0.19 0.10 0.08 0.07 0.03 0.00 0.00 0.00 0.00 0.00 0.00 0.00 0.00 0.00 0.00 0.00 0.00 0.00 0.00 0.00
0.02 0.02 0.01 0.02 0.01 0.01 0.01 0.04 0.06 0.05 0.09 0.10 0.11 0.06 0.09 0.16 0.27 0.13 0.01 0.03 0.02 0.09 0.09 0.06 0.01 0.01 0.04 0.23 0.43 0.47 0.38 0.25 0.29 0.23 0.11 0.06 0.04 0.03 0.01 0.00 0.00 0.00 0.00 0.00 0.00 0.00 0.00 0.00 0.00 0.00 0.00 0.00 0.00 0.01
0.01 0.01 0.01 0.01 0.01 0.01 0.02 0.03 0.03 0.07 0.12 0.16 0.14 0.08 0.20 0.20 0.15 0.12 0.08 0.09 0.05 0.11 0.18 0.04 0.01 0.00 0.00 0.07 0.26 0.37 0.36 0.29 0.26 0.12 0.11 0.10 0.06 0.01 0.00 0.00 0.00 0.00 0.00 0.00 0.00 0.00 0.00 0.00 0.00 0.00 0.00 0.00 0.00 0.00
0.01 0.00 0.00 0.01 0.00 0.01 0.01 0.02 0.05 0.09 0.08 0.07 0.13 0.31 0.33 0.14 0.29 0.42 0.29 0.19 0.26 0.18 0.06 0.05 0.00 0.01 0.00 0.02 0.07 0.18 0.29 0.31 0.24 0.16 0.15 0.13 0.04 0.02 0.00 0.00 0.00 0.00 0.00 0.00 0.00 0.00 0.00 0.00 0.00 0.00 0.00 0.00 0.00 0.00
0.00 0.00 0.00 0.00 0.00 0.01 0.00 0.02 0.07 0.09 0.10 0.22 0.38 0.41 0.33 0.49 0.61 0.41 0.28 0.18 0.19 0.19 0.07 0.01 0.00 0.01 0.00 0.00 0.02 0.07 0.16 0.22 0.24 0.19 0.19 0.13 0.05 0.00 0.00 0.00 0.00 0.00 0.00 0.00 0.00 0.00 0.00 0.00 0.00 0.00 0.00 0.00 0.00 0.00
0.00 0.00 0.00 0.00 0.00 0.00 0.00 0.02 0.06 0.06 0.18 0.38 0.54 0.62 0.55 0.51 0.41 0.23 0.14 0.07 0.03 0.01 0.00 0.00 0.00 0.00 0.04 0.05 0.01 0.07 0.12 0.12 0.15 0.10 0.11 0.08 0.02 0.00 0.00 0.00 0.00 0.00 0.00 0.00 0.00 0.00 0.00 0.00 0.00 0.00 0.01 0.00 0.00 0.00
0.00 0.00 0.00 0.00 0.00 0.00 0.00 0.02 0.03 0.18 0.27 0.53 0.88 0.69 0.41 0.25 0.13 0.04 0.04 0.02 0.00 0.00 0.00 0.00 0.00 0.00 0.05 0.10 0.04 0.06 0.10 0.10 0.03 0.03 0.02 0.00 0.00 0.00 0.00 0.00 0.00 0.00 0.00 0.00 0.00 0.00 0.00 0.00 0.00 0.00 0.02 0.01 0.00 0.00
0.00 0.00 0.00 0.00 0.00 0.00 0.00 0.01 0.04 0.21 0.31 0.67 0.88 0.49 0.09 0.12 0.00 0.00 0.00 0.00 0.00 0.00 0.00 0.01 0.01 0.01 0.02 0.06 0.07 0.02 0.01 0.05 0.01 0.00 0.00 0.00 0.00 0.00 0.00 0.00 0.00 0.00 0.00 0.00 0.00 0.00 0.00 0.00 0.00 0.00 0.00 0.01 0.00 0.00
0.00 0.00 0.00 0.00 0.00 0.00 0.00 0.00 0.04 0.15 0.28 0.65 0.53 0.24 0.03 0.02 0.00 0.00 0.00 0.00 0.00 0.00 0.00 0.00 0.00 0.00 0.00 0.01 0.01 0.01 0.00 0.02 0.00 0.00 0.00 0.00 0.00 0.00 0.00 0.00 0.00 0.00 0.00 0.00 0.00 0.00 0.00 0.00 0.00 0.00 0.00 0.00 0.00 0.00
0.01 0.00 0.00 0.00 0.00 0.00 0.00 0.00 0.05 0.16 0.31 0.43 0.31 0.11 0.02 0.00 0.00 0.00 0.00 0.00 0.00 0.00 0.00 0.00 0.00 0.00 0.00 0.00 0.00 0.00 0.00 0.00 0.00 0.00 0.00 0.00 0.00 0.00 0.00 0.00 0.00 0.00 0.00 0.00 0.00 0.00 0.00 0.00 0.00 0.00 0.00 0.00 0.00 0.00
0.01 0.01 0.00 0.00 0.00 0.00 0.00 0.00 0.03 0.13 0.21 0.26 0.12 0.02 0.01 0.00 0.00 0.00 0.00 0.00 0.00 0.00 0.00 0.00 0.00 0.00 0.00 0.00 0.00 0.00 0.00 0.00 0.00 0.00 0.00 0.00 0.00 0.00 0.00 0.00 0.00 0.00 0.00 0.00 0.00 0.00 0.00 0.00 0.00 0.00 0.00 0.00 0.00 0.00
0.02 0.00 0.00 0.00 0.00 0.00 0.00 0.00 0.03 0.08 0.11 0.08 0.03 0.02 0.01 0.00 0.00 0.00 0.00 0.00 0.00 0.00 0.01 0.04 0.01 0.00 0.00 0.00 0.00 0.00 0.00 0.00 0.00 0.00 0.00 0.00 0.00 0.00 0.00 0.00 0.00 0.00 0.00 0.00 0.00 0.00 0.00 0.00 0.00 0.00 0.00 0.00 0.00 0.00
0.02 0.01 0.00 0.00 0.00 0.00 0.00 0.00 0.01 0.04 0.05 0.05 0.04 0.05 0.03 0.01 0.00 0.00 0.00 0.00 0.00 0.01 0.08 0.13 0.10 0.04 0.00 0.00 0.00 0.00 0.00 0.00 0.00 0.00 0.00 0.00 0.00 0.00 0.00 0.00 0.00 0.00 0.00 0.00 0.00 0.00 0.00 0.00 0.00 0.00 0.00 0.00 0.00 0.00
0.06 0.05 0.02 0.00 0.00 0.00 0.00 0.00 0.00 0.02 0.02 0.03 0.04 0.07 0.08 0.06 0.04 0.03 0.01 0.01 0.02 0.10 0.18 0.15 0.05 0.01 0.00 0.01 0.00 0.00 0.00 0.00 0.00 0.00 0.00 0.00 0.00 0.00 0.00 0.00 0.00 0.00 0.00 0.00 0.00 0.00 0.00 0.00 0.00 0.00 0.00 0.00 0.00 0.00
0.06 0.02 0.01 0.00 0.00 0.00 0.00 0.00 0.00 0.01 0.01 0.02 0.04 0.06 0.07 0.12 0.12 0.13 0.17 0.17 0.25 0.31 0.16 0.06 0.02 0.01 0.01 0.02 0.03 0.02 0.00 0.00 0.00 0.00 0.00 0.00 0.00 0.00 0.00 0.00 0.00 0.00 0.00 0.00 0.00 0.00 0.00 0.00 0.00 0.00 0.00 0.00 0.00 0.00
0.01 0.00 0.00 0.00 0.00 0.00 0.00 0.00 0.00 0.00 0.01 0.01 0.02 0.07 0.09 0.11 0.17 0.23 0.28 0.41 0.42 0.22 0.08 0.03 0.02 0.01 0.01 0.01 0.01 0.01 0.00 0.00 0.00 0.00 0.00 0.00 0.00 0.00 0.00 0.00 0.00 0.00 0.00 0.00 0.00 0.00 0.00 0.00 0.00 0.00 0.00 0.00 0.00 0.00
0.00 0.00 0.00 0.00 0.00 0.00 0.00 0.00 0.00 0.00 0.01 0.01 0.01 0.05 0.07 0.12 0.18 0.21 0.29 0.23 0.16 0.09 0.08 0.06 0.05 0.04 0.04 0.02 0.02 0.01 0.01 0.01 0.01 0.00 0.00 0.00 0.00 0.00 0.00 0.00 0.00 0.00 0.00 0.00 0.00 0.00 0.00 0.00 0.00 0.00 0.00 0.00 0.00 0.00
0.01 0.00 0.00 0.00 0.00 0.00 0.00 0.00 0.00 0.00 0.00 0.00 0.02 0.04 0.06 0.09 0.14 0.22 0.18 0.10 0.09 0.10 0.12 0.14 0.12 0.10 0.09 0.09 0.07 0.06 0.06 0.06 0.05 0.04 0.03 0.02 0.01 0.01 0.01 0.00 0.00 0.00 0.00 0.00 0.00 0.00 0.00 0.00 0.01 0.00 0.00 0.00 0.00 0.00
0.02 0.01 0.00 0.00 0.00 0.00 0.00 0.00 0.00 0.00 0.00 0.00 0.01 0.03 0.05 0.09 0.13 0.13 0.08 0.03 0.06 0.13 0.15 0.16 0.17 0.18 0.17 0.17 0.16 0.14 0.12 0.12 0.09 0.09 0.08 0.07 0.05 0.04 0.05 0.03 0.01 0.00 0.00 0.01 0.01 0.01 0.01 0.03 0.04 0.04 0.03 0.01 0.01 0.01
0.02 0.00 0.00 0.00 0.00 0.00 0.00 0.00 0.00 0.00 0.00 0.00 0.01 0.01 0.04 0.08 0.08 0.08 0.04 0.03 0.06 0.10 0.13 0.17 0.20 0.22 0.22 0.23 0.23 0.25 0.24 0.23 0.20 0.16 0.11 0.11 0.09 0.08 0.08 0.08 0.06 0.05 0.02 0.03 0.07 0.08 0.08 0.08 0.09 0.10 0.11 0.10 0.09 0.09
0.00 0.00 0.00 0.00 0.00 0.00 0.00 0.00 0.00 0.01 0.00 0.00 0.00 0.01 0.03 0.04 0.04 0.03 0.02 0.05 0.08 0.09 0.12 0.17 0.22 0.24 0.25 0.26 0.28 0.31 0.33 0.36 0.37 0.30 0.28 0.25 0.18 0.13 0.12 0.12 0.11 0.09 0.12 0.16 0.16 0.15 0.14 0.13 0.14 0.15 0.15 0.16 0.14 0.09
0.00 0.00 0.00 0.00 0.00 0.00 0.00 0.00 0.00 0.00 0.00 0.00 0.00 0.01 0.02 0.03 0.02 0.02 0.01 0.03 0.07 0.12 0.14 0.17 0.22 0.25 0.27 0.29 0.33 0.38 0.43 0.47 0.46 0.43 0.41 0.40 0.37 0.30 0.29 0.28 0.31 0.33 0.34 0.31 0.26 0.24 0.24 0.21 0.18 0.18 0.17 0.14 0.12 0.11
0.00 0.00 0.00 0.00 0.00 0.00 0.00 0.00 0.00 0.00 0.00 0.00 0.00 0.00 0.00 0.00 0.00 0.01 0.01 0.02 0.05 0.11 0.16 0.18 0.20 0.24 0.27 0.31 0.35 0.43 0.48 0.51 0.46 0.41 0.34 0.31 0.32 0.36 0.40 0.43 0.45 0.45 0.39 0.36 0.34 0.30 0.25 0.24 0.23 0.21 0.19 0.18 0.17 0.16
0.00 0.00 0.00 0.00 0.00 0.00 0.00 0.00 0.00 0.00 0.00 0.00 0.00 0.00 0.00 0.00 0.00 0.00 0.01 0.02 0.04 0.08 0.15 0.20 0.23 0.25 0.28 0.30 0.35 0.39 0.44 0.49 0.51 0.43 0.36 0.33 0.35 0.40 0.45 0.46 0.45 0.42 0.37 0.32 0.34 0.41 0.41 0.39 0.36 0.32 0.28 0.27 0.24 0.19
0.01 0.01 0.00 0.00 0.00 0.00 0.01 0.01 0.01 0.00 0.00 0.01 0.01 0.00 0.00 0.00 0.01 0.01 0.02 0.04 0.07 0.11 0.15 0.19 0.23 0.27 0.29 0.32 0.34 0.35 0.34 0.39 0.45 0.49 0.47 0.45 0.46 0.47 0.49 0.49 0.45 0.41 0.38 0.35 0.32 0.30 0.29 0.25 0.20 0.20 0.22 0.21 0.18 0.13
0.02 0.02 0.01 0.00 0.00 0.01 0.01 0.01 0.01 0.00 0.00 0.00 0.00 0.01 0.00 0.01 0.02 0.02 0.03 0.06 0.08 0.11 0.16 0.19 0.23 0.25 0.28 0.29 0.30 0.31 0.33 0.34 0.38 0.44 0.45 0.43 0.43 0.45 0.47 0.47 0.46 0.42 0.39 0.38 0.38 0.36 0.33 0.31 0.33 0.31 0.29 0.28 0.23 0.19
0.02 0.02 0.01 0.00 0.01 0.01 0.01 0.00 0.00 0.00 0.00 0.00 0.00 0.01 0.02 0.02 0.03 0.04 0.05 0.08 0.09 0.13 0.16 0.19 0.23 0.26 0.27 0.28 0.28 0.27 0.29 0.34 0.40 0.45 0.50 0.49 0.46 0.43 0.42 0.41 0.41 0.40 0.38 0.40 0.46 0.45 0.45 0.41 0.37 0.36 0.33 0.29 0.24 0.17